Flag for Marshall Islands Weather past 2 weeks in Majuro, Marshall Islands

Now
84 °F

Broken clouds.


Feels Like: 94 °F
Forecast: 80 / 86 °F
Wind: 7 mph from Southwest

Location: Majuro Atoll

Current Time: Jul 6, 2015 at 8:04:09 PM

Latest Report: Jul 6, 2015 at 6:50 PM


Visibility: 15 mi

Pressure: 29.83 "Hg

Humidity: 78%

Dew point: 76 °F

Location of MajuroLocation

Historic Weather in Majuro — Graph

°F

Majuro temperature yesterday

Maximum temperature yesterday: 88 °F (at 12:55 PM)
Minimum temperature yesterday: 82 °F (at 3:50 AM)
Average temperature yesterday: 85 °F

Past Weeks' High & Low Weather Summary

 TemperatureHumidityPressure
High88 °F (Jul 5, 12:55 PM)94% (Jul 2, 2:57 AM)29.86 "Hg (Jul 2, 2:57 AM)
Low78 °F (Jul 2, 2:57 AM)70% (Jun 24, 1:51 PM)29.62 "Hg (Jul 3, 5:50 PM)
Average83 °F84%29.77 "Hg
* Reported Jun 21 6:51 PM — Jul 6 6:50 PM, Majuro, Weather by CustomWeather, © 2015

Note: Actual official high and low records may vary slightly from our data, if they occured in-between our weather recording intervals... More about our weather records

Advertising

Majuro weather history for previous 24 hours

 ConditionsComfort  
Time TempWeatherWind HumidityBarometerVisibility
6:50 PM
Mon, Jul 6
84 °FBroken clouds.7 mph78%29.83 "Hg15 mi
5:55 PM85 °FBroken clouds.8 mph75%29.81 "Hg15 mi
4:50 PM86 °FBroken clouds.10 mph74%29.79 "Hg15 mi
3:50 PM86 °FCloudy.12 mph76%29.79 "Hg15 mi
2:50 PM86 °FCloudy.12 mph75%29.80 "Hg15 mi
1:51 PM86 °FMore clouds than sun.12 mph78%29.80 "Hg15 mi
12:53 PM86 °FCloudy.12 mph80%29.83 "Hg15 mi
11:53 AM87 °FCloudy.13 mph79%29.83 "Hg15 mi
10:51 AM85 °FCloudy.8 mph84%29.85 "Hg15 mi
9:53 AM85 °FCloudy.6 mph83%29.86 "Hg15 mi
8:50 AM84 °FCloudy.7 mph84%29.83 "Hg15 mi
7:53 AM83 °FCloudy.8 mph85%29.81 "Hg15 mi
6:51 AM82 °FOvercast.7 mph86%29.80 "Hg15 mi
5:56 AM82 °FOvercast.6 mph86%29.79 "Hg15 mi
4:50 AM83 °FOvercast.9 mph84%29.79 "Hg15 mi
3:57 AM82 °FMostly cloudy.10 mph85%29.79 "Hg15 mi
2:55 AM82 °FOvercast.10 mph88%29.78 "Hg15 mi
1:56 AM80 °FLight rain. Overcast.5 mph92%29.80 "Hg14 mi
12:51 AM83 °FOvercast.12 mph86%29.83 "Hg15 mi
11:55 PM
Sun, Jul 5
83 °FMostly cloudy.7 mph86%29.85 "Hg15 mi
10:50 PM83 °FMostly cloudy.6 mph84%29.85 "Hg15 mi
9:54 PM83 °FMostly cloudy.5 mph84%29.83 "Hg15 mi
8:52 PM84 °FMostly cloudy.10 mph84%29.83 "Hg15 mi
Weather by CustomWeather, © 2015

See weather overviewHow to use our weather pages